Regional Weather Roundup
Issued by NWS

Home | Current Version | Previous Version | Graphics & Text | Print | Product List | Glossary Off
Versions: 1 2 3 4 5 6 7 8 9 10 11 12 13 14 15 16 17 18 19 20 21 22 23 24 25 26 27 28

000
ASUS45 KPSR 200310
RWRAZ

ARIZONA HOURLY REGIONAL WEATHER ROUNDUP
NATIONAL WEATHER SERVICE PHOENIX AZ
800 PM MST TUE SEP 19 2017

NOTE: FAIR INDICATES FEW OR NO CLOUDS BELOW 12,000 FEET WITH NO
SIGNIFICANT WEATHER AND/OR OBSTRUCTIONS TO VISIBILITY.

AZZ001>003-036-200400-
NORTHWEST ARIZONA

CITY           SKY/WX    TMP DP  RH WIND       PRES   REMARKS
BULLHEAD CITY  CLEAR     91  36  14 SE16      29.65S
KINGMAN        CLEAR     69  41  36 S8        29.86S
$$

AZZ004>008-015-016-018-200400-
NORTH CENTRAL ARIZONA

CITY           SKY/WX    TMP DP  RH WIND       PRES   REMARKS
GRAND CANYON   PTCLDY    60  29  30 SW7       30.07R
WILLIAMS       PTCLDY    61  32  33 S10       30.08R
PRESCOTT       CLEAR     68  35  29 S3        30.00R
FLAGSTAFF      PTCLDY    60  30  32 SW14      30.10R
PAYSON           N/A     70  32  24 VRB6      30.04R
PAGE           CLEAR     79  32  18 W8G17     29.82R
$$

AZZ009>014-017-200400-
NORTHEAST ARIZONA

CITY           SKY/WX    TMP DP  RH WIND       PRES   REMARKS
WINSLOW        PTCLDY    72  32  23 SW21      29.96S
SAINT JOHNS    CLEAR     70  38  31 W8G20     30.03R
WINDOW ROCK    PTCLDY    65  25  22 SW10      30.07R
SHOW LOW       CLEAR     66  39  37 S10       30.10R
$$

AZZ540-542>544-546-548-200400-
GREATER PHOENIX AREA

CITY           SKY/WX    TMP DP  RH WIND       PRES   REMARKS
PHOENIX        CLEAR     91  29  11 W9        29.73R
BUCKEYE          N/A     84  30  14 SW10      29.75R
GLENDALE       CLEAR    N/A N/A N/A S8        29.75R
LUKE AFB       CLEAR     85  38  18 SW8       29.74R
DEER VALLEY    CLEAR     89  37  16 SW9       29.75R
SCOTTSDALE     CLEAR     90  38  16 W7        29.77R
MESA-GATEWAY   CLEAR     86  23  10 W7        29.77R
CHANDLER       CLEAR     88  30  12 S8        29.75R
$$

AZZ539-553-200400-
SOUTHWEST MARICOPA COUNTY AND PINAL COUNTY

CITY           SKY/WX    TMP DP  RH WIND       PRES   REMARKS
CASA GRANDE    NOT AVBL
GILA BEND      CLEAR     86  18   8 S10       29.73R
$$

AZZ503-504-507>509-200400-
SOUTHEAST ARIZONA

CITY           SKY/WX    TMP DP  RH WIND       PRES   REMARKS
TUCSON         CLEAR     86  47  25 W8        29.90R
DAVIS-MONTHAN  CLEAR     85  47  26 W9        29.88R
RYAN FIELD     CLEAR     84  50  30 SW7       29.88R
NOGALES        CLEAR     76  53  44 W5        29.99R
SIERRA VISTA   CLEAR     75  49  39 SW7       30.04R
DOUGLAS        CLEAR     78  53  41 W8        29.99R
SAFFORD        CLEAR     84  43  23 NW12      29.86R
$$

AZZ532-200400-
SOUTHWEST ARIZONA

CITY           SKY/WX    TMP DP  RH WIND       PRES   REMARKS
YUMA           CLEAR     88  41  19 S8        29.69R
$$

CAZ041-043-047-048-061-525>527-560>570-200400-
SOUTHERN CALIFORNIA

CITY           SKY/WX    TMP DP  RH WIND       PRES   REMARKS
DOWNTOWN L.A.  CLEAR     70  58  65 CALM      29.86S
L.A. AIRPORT   CLEAR     67  63  87 W13       29.87R
SAN DIEGO      MOCLDY    70  60  70 VRB3      29.89S
BURBANK        CLEAR     67  56  67 SW3       29.87R
ONTARIO        PTCLDY    69  58  67 SW14      29.87R
RIVERSIDE      CLEAR     70  59  68 W13       29.87R
PALM SPRINGS   CLEAR     85  52  32 NW13G24   29.69S
EL CENTRO NAS  CLEAR     85  43  22 W21       29.70R
IMPERIAL       CLEAR     85  47  26 W18       29.67R
BLYTHE         PTCLDY    91  43  18 SW13      29.67R
NEEDLES        CLEAR     91  34  13 S7        29.69R
$$

NVZ020-UTZ003-200400-
SOUTHERN NEVADA-UTAH

CITY           SKY/WX    TMP DP  RH WIND       PRES   REMARKS
LAS VEGAS      PTCLDY    85  41  21 S7        29.72R
SALT LAKE CITY PTCLDY    57  34  41 CALM      29.91R
$$

NMZ009-TXZ055-200400-
NEW MEXICO-WEST TEXAS

CITY           SKY/WX    TMP DP  RH WIND       PRES   REMARKS
ALBUQUERQUE    CLOUDY    77  24  14 W18       29.95R
EL PASO        PTCLDY    88  48  25 W17G23    29.91R
$$


........................KEY........................
SKY/WX - SKY CONDITION/WEATHER
TMP    - TEMPERATURE IN FAHRENHEIT
DP     - DEW POINT IN FAHRENHEIT
RH     - RELATIVE HUMIDITY IN PERCENT
WIND   - DIRECTION AND SPEED IN MILES PER HOUR (MPH)
VRB    - VARIABLE WIND DIRECTION
PRES   - MEAN SEA LEVEL PRESSURE IN INCHES OF MERCURY
         F - FALLING PRESSURE   R - RISING PRESSURE
         S - STEADY PRESSURE
VSB    - VISIBILITY IN MILES
HX     - HEAT INDEX IN FAHRENHEIT
WCI    - WIND CHILL INDEX IN FAHRENHEIT
TC     - TEMPERATURE IN CELSIUS WHICH IS ALSO KNOWN AS
         TEMPERATURE IN CENTIGRADE
AFB    - AIR FORCE BASE
         LUKE AFB IS LUKE AIR FORCE BASE
         DAVIS-MONTHAN IS DAVIS-MONTHAN AIR FORCE BASE
NAS    - NAVAL AIR STATION
         EL CENTRO NAS IS EL CENTRO NAVAL AIR STATION
N/A    - NOT AVAILABLE





USA.gov is the U.S. government's official web portal to all federal, state and local government web resources and services.